DW5677 Weather Reports


time (UTC)temp
C
wind
direction
speed
KPH
gust
KPH
rain 1hr
cm
rain 24hr
cm
rain mn
cm
humidity
%
barometer
mb
20260503214532 15 180 19.3 38.6 0.00 0.23 0.23 55 1008.8
20260503213032 16 209 20.9 46.7 0.00 0.23 0.23 54 1009.0
20260503211530 16 192 24.1 48.3 0.00 0.23 0.23 53 1009.0
20260503210043 16 207 20.9 45.1 0.00 0.23 0.23 53 1009.2
20260503204530 16 190 29.0 46.7 0.00 0.23 0.23 51 1009.1
20260503203030 16 210 22.5 41.8 0.00 0.23 0.23 53 1009.4
20260503201533 16 215 20.9 38.6 0.00 0.23 0.23 59 1009.5
20260503200026 13 153 20.9 29.0 0.00 0.23 0.23 77 1009.8
20260503194528 12 144 19.3 30.6 0.00 0.23 0.23 78 1010.3
20260503193032 11 157 17.7 27.4 0.00 0.23 0.23 81 1010.9
20260503191530 10 148 17.7 27.4 0.03 0.23 0.23 83 1011.0
20260503190039 9 140 12.9 19.3 0.08 0.23 0.23 84 1011.6
20260503184529 9 165 8.0 14.5 0.13 0.23 0.23 83 1012.3
20260503183026 9 192 8.0 17.7 0.13 0.23 0.23 81 1012.9
20260503181529 9 224 14.5 33.8 0.15 0.20 0.20 80 1013.6
20260503180028 9 213 8.0 19.3 0.15 0.15 0.15 82 1013.7
20260503174530 9 221 9.7 19.3 0.10 0.10 0.10 80 1014.0
20260503173044 9 213 14.5 29.0 0.08 0.08 0.08 77 1014.2
20260503171526 10 252 14.5 27.4 0.03 0.03 0.03 73 1014.3
20260503081543 5 215 6.4 16.1 0.00 0.00 0.00 65 1015.2
20260503071536 6 214 6.4 12.9 0.00 0.00 0.00 65 1015.4
20260503054535 6 198 6.4 11.3 0.00 0.00 0.00 63 1016.1
20260503053030 6 233 6.4 11.3 0.00 0.00 0.00 63 1016.2
20260503051529 6 199 3.2 8.0 0.00 0.00 0.00 64 1016.3
20260503050029 6 197 4.8 11.3 0.00 0.00 0.00 63 1016.5
20260503044538 6 177 4.8 9.7 0.00 0.00 0.00 63 1016.4
20260503043028 6 194 3.2 6.4 0.00 0.00 0.00 64 1016.3
20260503041528 6 194 3.2 6.4 0.00 0.00 0.00 63 1016.5
20260503040029 6 190 3.2 8.0 0.00 0.00 0.00 64 1016.6
20260503034528 6 186 4.8 8.0 0.00 0.00 0.00 63 1016.7
20260503033029 7 198 3.2 9.7 0.00 0.00 0.00 61 1016.6
20260503031529 7 240 1.6 4.8 0.00 0.00 0.00 59 1016.7
20260503030029 7 0 0.0 6.4 0.00 0.00 0.00 59 1016.7
20260503024530 7 243 1.6 4.8 0.00 0.00 0.00 59 1016.8
20260503023031 7 243 3.2 6.4 0.00 0.00 0.00 59 1016.8
20260503021529 7 243 1.6 4.8 0.00 0.00 0.00 59 1016.6
20260503020027 7 243 1.6 4.8 0.00 0.00 0.00 60 1016.6
20260503014528 7 0 0.0 0.0 0.00 0.00 0.00 66 1016.6
20260503013035 7 0 0.0 0.0 0.00 0.00 0.00 59 1016.5
20260503011530 8 0 0.0 1.6 0.00 0.00 0.00 57 1016.4
20260503010028 9 0 0.0 3.2 0.00 0.00 0.00 51 1016.5
20260503004530 10 243 0.0 3.2 0.00 0.00 0.00 46 1016.4
20260503003026 11 243 1.6 4.8 0.00 0.00 0.00 43 1016.6
20260503001526 11 0 0.0 3.2 0.00 0.00 0.00 47 1016.6
20260503000036 11 243 1.6 6.4 0.00 0.00 0.00 42 1016.4
20260502234531 11 294 1.6 9.7 0.00 0.00 0.00 42 1016.6
20260502233028 11 292 8.0 12.9 0.00 0.00 0.00 40 1016.6
20260502231527 11 300 3.2 12.9 0.00 0.00 0.00 41 1016.6
20260502230031 11 284 6.4 11.3 0.00 0.00 0.00 41 1016.7
20260502224530 11 340 3.2 9.7 0.00 0.00 0.00 38 1016.7
20260502223028 11 306 4.8 11.3 0.00 0.00 0.00 39 1016.8
20260502221534 11 298 8.0 14.5 0.00 0.00 0.00 38 1016.8
20260502220028 11 226 6.4 12.9 0.00 0.00 0.00 40 1016.8